Location: Eaton
(41.3139°N, 82.0207°W)
Time: 07:06:19
(UTC+00:00)

SeaSat 1 - Pass Details

Date: 17 June 2021
Orbit: 745 x 746 km, 108.0° (Epoch: 27 July)

Event Time Altitude Azimuth Distance (km) Brightness Sun altitude
Rises 07:59:44 0° 29° (NNE) 3,196 7.5 -16.5°
Reaches altitude 10° 08:02:02 10° 33° (NNE) 2,269 6.3 -16.2°
Maximum altitude 08:06:56 63° 114° (ESE) 834 2.7 -15.7°
Enters shadow 08:10:13 21° 191° (S) 1,649 3.7 -15.3°
